EW8215 Weather Reports


Display with metric or nautical units.
time (UTC)temp
F
wind
direction
speed
MPH
gust
MPH
rain 1hr
in
rain 24hr
in
rain mn
in
humidity
%
barometer
mb
20260903063533 78 167 3.0 3.0 0.00 0.00 0.00 82 1014.0
20260903063029 78 169 4.0 5.0 0.00 0.00 0.00 83 1014.0
20260903062523 78 148 0.0 2.0 0.00 0.00 0.00 84 1013.8
20260903062019 78 156 2.0 3.0 0.00 0.00 0.00 84 1013.9
20260903061514 78 163 0.0 0.0 0.00 0.00 0.00 85 1014.0
20260903061009 78 186 2.0 3.0 0.00 0.00 0.00 85 1014.0
20260903060509 78 161 0.0 0.0 0.00 0.00 0.00 85 1014.0
20260903060004 78 168 2.0 3.0 0.00 0.00 0.00 85 1014.0
20260903055501 78 165 0.0 0.0 0.00 0.00 0.00 85 1014.0
20260903055000 78 156 0.0 0.0 0.00 0.00 0.00 85 1014.0
20260903054455 78 141 0.0 0.0 0.00 0.00 0.00 85 1014.0
20260903053951 78 157 0.0 0.0 0.00 0.00 0.00 85 1014.2
20260903053451 78 158 0.0 0.0 0.00 0.00 0.00 85 1014.0
20260903052948 78 145 0.0 0.0 0.00 0.00 0.00 85 1014.1
20260903052443 79 170 3.0 3.0 0.00 0.00 0.00 84 1014.2
20260903051939 78 160 2.0 3.0 0.00 0.00 0.00 85 1014.0
20260903051434 78 156 2.0 2.0 0.00 0.00 0.00 85 1014.1
20260903050930 78 139 3.0 3.0 0.00 0.00 0.00 86 1014.1
20260903050428 78 158 2.0 2.0 0.00 0.00 0.00 86 1014.1
20260903045922 78 148 0.0 0.0 0.00 0.00 0.00 87 1014.2
20260903045418 78 154 0.0 0.0 0.00 0.00 0.00 88 1014.2
20260903044915 78 157 0.0 0.0 0.00 0.00 0.00 88 1014.1
20260903044414 78 160 0.0 0.0 0.00 0.00 0.00 87 1014.1
20260903043911 79 151 2.0 3.0 0.00 0.00 0.00 87 1014.0
20260903043406 79 140 3.0 3.0 0.00 0.00 0.00 87 1013.9
20260903042904 79 117 4.0 5.0 0.00 0.00 0.00 86 1013.8
20260903042400 79 150 4.0 5.0 0.00 0.00 0.00 86 1013.9
20260903041856 79 138 3.0 3.0 0.00 0.00 0.00 86 1014.1
20260903041352 79 124 6.0 7.0 0.00 0.00 0.00 85 1013.9
20260903040848 79 129 9.0 10.0 0.00 0.00 0.00 84 1014.0
20260903040347 79 145 6.0 9.0 0.00 0.00 0.00 84 1013.9
20260903035843 80 158 2.0 3.0 0.00 0.00 0.00 83 1013.9
20260903035338 80 158 6.0 7.0 0.00 0.00 0.00 83 1014.0
20260903034833 80 115 6.0 7.0 0.00 0.00 0.00 83 1014.0
20260903034328 80 119 3.0 3.0 0.00 0.00 0.00 83 1014.1
20260903033823 80 101 7.0 9.0 0.00 0.00 0.00 83 1014.1
20260903033318 80 117 8.0 10.0 0.00 0.00 0.00 83 1014.1
20260903032818 80 130 10.0 14.0 0.00 0.00 0.00 83 1014.1
20260903032314 80 109 11.0 14.0 0.00 0.00 0.00 83 1014.1
20260903031809 80 113 7.0 9.0 0.00 0.00 0.00 83 1014.1
20260903031308 81 128 5.0 7.0 0.00 0.00 0.00 82 1013.9
20260903030805 81 138 9.0 10.0 0.00 0.00 0.00 82 1013.8
20260903030301 81 138 4.0 5.0 0.00 0.00 0.00 81 1013.7
20260903025756 81 130 6.0 7.0 0.00 0.00 0.00 80 1013.6
20260903025252 82 118 4.0 5.0 0.00 0.00 0.00 80 1013.4
20260903024752 82 134 5.0 7.0 0.00 0.00 0.00 80 1013.4
20260903024251 82 155 6.0 9.0 0.00 0.00 0.00 80 1013.4
20260903023747 82 113 8.0 10.0 0.00 0.00 0.00 79 1013.3
20260903023242 82 142 9.0 10.0 0.00 0.00 0.00 79 1013.4
20260903022737 82 140 7.0 10.0 0.00 0.00 0.00 79 1013.0
20260903022235 82 137 9.0 10.0 0.00 0.00 0.00 80 1013.3
20260903021730 82 110 9.0 14.0 0.00 0.00 0.00 80 1013.0
20260903021225 82 134 8.0 10.0 0.00 0.00 0.00 79 1012.8
20260903020725 83 142 8.0 10.0 0.00 0.00 0.00 78 1013.0
20260903020225 83 136 11.0 14.0 0.00 0.00 0.00 77 1013.1
20260903015721 83 176 8.0 12.0 0.00 0.00 0.00 76 1013.1
20260903015216 84 129 9.0 12.0 0.00 0.00 0.00 75 1013.0
20260903014712 84 125 10.0 12.0 0.00 0.00 0.00 74 1012.7
20260903014211 84 145 12.0 15.0 0.00 0.00 0.00 73 1012.5
20260903013711 84 96 9.0 14.0 0.00 0.00 0.00 71 1012.7
20260903013211 85 128 11.0 12.0 0.00 0.00 0.00 69 1012.6
20260903012709 85 132 7.0 9.0 0.00 0.00 0.00 68 1012.6
20260903012209 86 107 7.0 9.0 0.00 0.00 0.00 66 1012.5
20260903011704 87 119 10.0 12.0 0.00 0.00 0.00 64 1012.4
20260903011204 89 132 13.0 17.0 0.00 0.00 0.00 63 1012.3
20260903010659 89 119 11.0 12.0 0.00 0.00 0.00 61 1011.9
20260903010159 90 137 8.0 9.0 0.00 0.00 0.00 61 1011.8
20260903005658 90 117 12.0 15.0 0.00 0.00 0.00 60 1011.8
20260903005154 91 118 9.0 12.0 0.00 0.00 0.00 58 1011.6
20260903004649 91 134 11.0 14.0 0.00 0.00 0.00 56 1011.5
20260903004138 91 123 4.0 5.0 0.00 0.00 0.00 55 1011.7
20260903003634 90 143 7.0 9.0 0.00 0.00 0.00 57 1011.6
20260903003129 90 130 4.0 5.0 0.00 0.00 0.00 58 1011.3
20260903002624 91 155 0.0 0.0 0.00 0.00 0.00 55 1011.3
20260903002118 91 155 0.0 0.0 0.00 0.00 0.00 55 1011.3
20260903001613 92 153 0.0 0.0 0.00 0.00 0.00 53 1011.4
20260903001113 92 175 2.0 3.0 0.00 0.00 0.00 54 1011.4
20260903000609 92 139 2.0 2.0 0.00 0.00 0.00 53 1011.4
20260903000108 93 131 2.0 3.0 0.00 0.00 0.00 52 1011.4
20260902235606 93 160 0.0 0.0 0.00 0.00 0.00 50 1011.4
20260902235101 92 94 7.0 12.0 0.00 0.00 0.00 51 1011.5
20260902234556 92 157 4.0 7.0 0.00 0.00 0.00 53 1011.5
20260902234054 93 130 4.0 5.0 0.00 0.00 0.00 52 1011.3
20260902233550 95 118 4.0 5.0 0.00 0.00 0.00 51 1011.3
20260902233044 97 156 0.0 0.0 0.00 0.00 0.00 48 1011.3
20260902232543 97 172 0.0 0.0 0.00 0.00 0.00 47 1011.3
20260902232037 97 161 0.0 0.0 0.00 0.00 0.00 47 1011.3
20260902231533 97 160 0.0 0.0 0.00 0.00 0.00 47 1011.4
20260902231032 98 205 0.0 0.0 0.00 0.00 0.00 45 1011.3
20260902230527 98 158 0.0 0.0 0.00 0.00 0.00 46 1011.2
20260902230027 98 159 0.0 0.0 0.00 0.00 0.00 46 1011.1
20260902225522 98 157 0.0 0.0 0.00 0.00 0.00 45 1011.2
20260902225021 99 154 4.0 5.0 0.00 0.00 0.00 43 1011.2
20260902224520 99 157 0.0 0.0 0.00 0.00 0.00 41 1011.2
20260902224016 100 149 0.0 2.0 0.00 0.00 0.00 41 1011.1
20260902223513 100 157 0.0 0.0 0.00 0.00 0.00 42 1011.0
20260902223011 100 153 0.0 0.0 0.00 0.00 0.00 41 1011.1
20260902222510 100 196 4.0 5.0 0.00 0.00 0.00 40 1011.1
20260902222009 100 115 3.0 5.0 0.00 0.00 0.00 40 1011.2
20260902221509 102 137 3.0 5.0 0.00 0.00 0.00 39 1011.1
20260902221005 101 161 0.0 2.0 0.00 0.00 0.00 40 1011.2
20260902220505 100 149 0.0 0.0 0.00 0.00 0.00 41 1011.0
20260902215954 99 114 7.0 9.0 0.00 0.00 0.00 42 1011.1
20260902215450 102 86 3.0 5.0 0.00 0.00 0.00 40 1011.3
20260902214945 103 137 4.0 5.0 0.00 0.00 0.00 38 1011.2
20260902214445 102 124 2.0 3.0 0.00 0.00 0.00 38 1011.1
20260902213944 101 114 2.0 2.0 0.00 0.00 0.00 39 1011.5
20260902213441 103 138 3.0 5.0 0.00 0.00 0.00 38 1011.4
20260902212939 104 349 3.0 3.0 0.00 0.00 0.00 37 1011.4
20260902212435 104 122 4.0 5.0 0.00 0.00 0.00 37 1011.4
20260902211926 104 125 2.0 3.0 0.00 0.00 0.00 38 1011.4
20260902211421 104 43 2.0 5.0 0.00 0.00 0.00 37 1011.5
20260902210916 102 185 2.0 5.0 0.00 0.00 0.00 38 1011.4
20260902210416 101 173 0.0 2.0 0.00 0.00 0.00 39 1011.6
20260902205914 102 1 8.0 9.0 0.00 0.00 0.00 39 1011.8
20260902205409 101 307 5.0 7.0 0.00 0.00 0.00 39 1011.8
20260902204905 103 340 11.0 12.0 0.00 0.00 0.00 37 1011.9
20260902204405 103 159 2.0 2.0 0.00 0.00 0.00 37 1011.7
20260902203900 103 345 5.0 9.0 0.00 0.00 0.00 38 1012.0
20260902203355 101 327 6.0 9.0 0.00 0.00 0.00 38 1012.0
20260902202849 101 315 7.0 9.0 0.00 0.00 0.00 40 1012.1
20260902202345 103 338 4.0 5.0 0.00 0.00 0.00 38 1012.0
20260902201842 104 284 7.0 9.0 0.00 0.00 0.00 38 1012.2
20260902201336 104 111 3.0 3.0 0.00 0.00 0.00 38 1012.2
20260902200831 103 29 3.0 3.0 0.00 0.00 0.00 38 1012.2
20260902200326 103 327 3.0 3.0 0.00 0.00 0.00 38 1012.4
20260902195822 103 147 3.0 5.0 0.00 0.00 0.00 37 1012.4
20260902195321 103 85 5.0 7.0 0.00 0.00 0.00 38 1012.4
20260902194815 101 154 0.0 0.0 0.00 0.00 0.00 39 1012.7
20260902194310 102 179 2.0 3.0 0.00 0.00 0.00 39 1012.8
20260902193806 102 281 3.0 5.0 0.00 0.00 0.00 40 1013.0
20260902193301 101 162 1.0 2.0 0.00 0.00 0.00 40 1013.2
20260902192800 101 173 8.0 12.0 0.00 0.00 0.00 41 1013.2
20260902192259 102 102 6.0 9.0 0.00 0.00 0.00 40 1013.2
20260902191759 102 68 6.0 7.0 0.00 0.00 0.00 39 1013.3
20260902191254 101 127 3.0 3.0 0.00 0.00 0.00 40 1013.5
20260902190749 101 192 4.0 5.0 0.00 0.00 0.00 41 1013.4
20260902190249 101 4 6.0 7.0 0.00 0.00 0.00 42 1013.5
20260902185744 102 193 5.0 7.0 0.00 0.00 0.00 41 1013.4
20260902185240 100 155 3.0 3.0 0.00 0.00 0.00 44 1013.7
20260902184736 101 348 9.0 10.0 0.00 0.00 0.00 42 1013.8
20260902184231 99 193 2.0 3.0 0.00 0.00 0.00 43 1013.7
20260902183727 101 338 5.0 5.0 0.00 0.00 0.00 43 1014.0
20260902183223 99 63 6.0 7.0 0.00 0.00 0.00 44 1014.1
20260902182719 101 252 4.0 5.0 0.00 0.00 0.00 43 1014.0
20260902182215 100 212 3.0 7.0 0.00 0.00 0.00 44 1014.3
20260902181712 100 335 4.0 7.0 0.00 0.00 0.00 44 1014.2
20260902181211 99 177 0.0 0.0 0.00 0.00 0.00 45 1014.3
20260902180711 98 179 9.0 12.0 0.00 0.00 0.00 45 1014.5
20260902180207 98 123 2.0 3.0 0.00 0.00 0.00 46 1014.6
20260902175702 98 26 4.0 5.0 0.00 0.00 0.00 46 1014.8
20260902175158 98 162 2.0 3.0 0.00 0.00 0.00 48 1014.8
20260902174654 98 222 3.0 5.0 0.00 0.00 0.00 47 1014.9
20260902174149 98 161 0.0 0.0 0.00 0.00 0.00 47 1015.0
20260902173644 96 323 9.0 10.0 0.00 0.00 0.00 48 1015.3
20260902173139 97 192 6.0 9.0 0.00 0.00 0.00 47 1015.3
20260902172638 98 186 2.0 3.0 0.00 0.00 0.00 47 1015.4
20260902172138 97 129 0.0 2.0 0.00 0.00 0.00 49 1015.4
20260902171633 96 355 4.0 7.0 0.00 0.00 0.00 49 1015.5
20260902171129 95 237 3.0 5.0 0.00 0.00 0.00 50 1015.7
20260902170625 95 274 6.0 7.0 0.00 0.00 0.00 51 1015.7
20260902170121 95 249 6.0 9.0 0.00 0.00 0.00 50 1015.9
20260902165620 95 3 4.0 5.0 0.00 0.00 0.00 50 1015.9
20260902165114 95 262 5.0 7.0 0.00 0.00 0.00 51 1016.0
20260902164610 96 246 3.0 5.0 0.00 0.00 0.00 51 1015.8
20260902164108 95 303 2.0 7.0 0.00 0.00 0.00 51 1016.0
20260902163604 95 191 2.0 3.0 0.00 0.00 0.00 52 1015.9
20260902163103 94 137 4.0 5.0 0.00 0.00 0.00 52 1015.9
20260902162602 93 83 2.0 3.0 0.00 0.00 0.00 54 1016.1
20260902162057 94 195 4.0 7.0 0.00 0.00 0.00 52 1016.1
20260902161552 93 192 2.0 2.0 0.00 0.00 0.00 52 1016.1
20260902161048 93 202 5.0 7.0 0.00 0.00 0.00 54 1016.2
20260902160544 93 169 3.0 5.0 0.00 0.00 0.00 54 1016.2
20260902160039 93 91 5.0 7.0 0.00 0.00 0.00 54 1016.4
20260902155532 92 150 0.0 0.0 0.00 0.00 0.00 56 1016.2
20260902155031 92 167 2.0 3.0 0.00 0.00 0.00 57 1016.3
20260902154526 92 330 5.0 7.0 0.00 0.00 0.00 57 1016.3
20260902154021 92 153 2.0 3.0 0.00 0.00 0.00 57 1016.2
20260902153519 91 125 1.0 2.0 0.00 0.00 0.00 58 1016.2
20260902153015 92 152 3.0 3.0 0.00 0.00 0.00 58 1016.4
20260902152512 90 137 0.0 2.0 0.00 0.00 0.00 60 1016.3
20260902152007 90 145 2.0 3.0 0.00 0.00 0.00 62 1016.3
20260902151503 88 133 2.0 2.0 0.00 0.00 0.00 62 1016.1
20260902150956 88 188 4.0 5.0 0.00 0.00 0.00 64 1016.3
20260902150452 88 159 1.0 2.0 0.00 0.00 0.00 65 1016.2
20260902145952 87 217 3.0 5.0 0.00 0.00 0.00 66 1016.5
20260902145447 88 202 4.0 5.0 0.00 0.00 0.00 65 1016.3
20260902144947 86 151 2.0 3.0 0.00 0.00 0.00 68 1016.2
20260902144444 86 135 3.0 3.0 0.00 0.00 0.00 69 1016.2
20260902143943 86 154 0.0 2.0 0.00 0.00 0.00 69 1016.4
20260902143439 86 167 2.0 3.0 0.00 0.00 0.00 69 1016.5
20260902142934 85 143 2.0 2.0 0.00 0.00 0.00 71 1016.4
20260902142430 83 139 2.0 3.0 0.00 0.00 0.00 74 1016.3
20260902141925 82 157 0.0 2.0 0.00 0.00 0.00 76 1016.2
20260902141421 81 164 2.0 3.0 0.00 0.00 0.00 78 1016.4
20260902140919 81 168 2.0 2.0 0.00 0.00 0.00 78 1016.3
20260902140415 81 156 0.0 0.0 0.00 0.00 0.00 78 1016.4
20260902135909 81 160 1.0 2.0 0.00 0.00 0.00 77 1016.3
20260902135406 81 145 0.0 0.0 0.00 0.00 0.00 78 1016.3
20260902134905 82 136 0.0 0.0 0.00 0.00 0.00 76 1016.1
20260902134401 83 134 0.0 0.0 0.00 0.00 0.00 75 1016.4
20260902133901 81 150 0.0 0.0 0.00 0.00 0.00 78 1016.1
20260902133400 81 152 0.0 0.0 0.00 0.00 0.00 79 1016.1
20260902132855 80 152 0.0 0.0 0.00 0.00 0.00 81 1016.1
20260902132350 79 150 0.0 0.0 0.00 0.00 0.00 82 1015.9
20260902131846 78 150 0.0 0.0 0.00 0.00 0.00 84 1015.9
20260902131343 77 148 0.0 0.0 0.00 0.00 0.00 86 1015.9
20260902130842 76 150 0.0 0.0 0.00 0.00 0.00 87 1015.9
20260902130338 75 140 0.0 0.0 0.00 0.00 0.00 89 1015.7
20260902125833 75 146 0.0 0.0 0.00 0.00 0.00 89 1015.9
20260902125329 74 150 0.0 0.0 0.00 0.00 0.00 90 1015.9
20260902124825 74 148 0.0 0.0 0.00 0.00 0.00 91 1015.7
20260902124320 74 152 0.0 0.0 0.00 0.00 0.00 91 1015.8
20260902123815 74 151 0.0 0.0 0.00 0.00 0.00 91 1015.5
20260902123312 74 152 0.0 0.0 0.00 0.00 0.00 91 1015.6
20260902122810 74 152 0.0 0.0 0.00 0.00 0.00 91 1015.5
20260902122307 74 154 0.0 0.0 0.00 0.00 0.00 91 1015.2
20260902121806 74 154 0.0 0.0 0.00 0.00 0.00 91 1015.3
20260902121301 74 155 0.0 0.0 0.00 0.00 0.00 90 1015.5
20260902120756 74 155 0.0 0.0 0.00 0.00 0.00 91 1015.3
20260902120253 74 155 0.0 0.0 0.00 0.00 0.00 91 1015.3
20260902115747 74 152 0.0 0.0 0.00 0.00 0.00 91 1015.2
20260902115243 74 152 0.0 0.0 0.00 0.00 0.00 91 1015.3
20260902114739 74 151 0.0 0.0 0.00 0.00 0.00 90 1015.3
20260902114235 75 151 0.0 0.0 0.00 0.00 0.00 90 1015.3
20260902113729 75 151 0.0 0.0 0.00 0.00 0.00 91 1015.2
20260902113225 75 155 0.0 0.0 0.00 0.00 0.00 90 1015.3
20260902112719 75 155 0.0 0.0 0.00 0.00 0.00 90 1015.3
20260902112216 75 151 0.0 0.0 0.00 0.00 0.00 90 1015.2
20260902111711 75 148 0.0 0.0 0.00 0.00 0.00 90 1015.4
20260902111207 75 149 0.0 0.0 0.00 0.00 0.00 90 1015.4
20260902110702 75 151 0.0 0.0 0.00 0.00 0.00 89 1015.3
20260902110158 75 151 0.0 0.0 0.00 0.00 0.00 89 1015.3
20260902105657 75 151 0.0 0.0 0.00 0.00 0.00 89 1015.5
20260902105153 75 153 0.0 0.0 0.00 0.00 0.00 89 1015.4
20260902104648 75 153 0.0 0.0 0.00 0.00 0.00 89 1015.3
20260902104144 75 153 0.0 0.0 0.00 0.00 0.00 88 1015.3
20260902103643 75 153 0.0 0.0 0.00 0.00 0.00 88 1015.3
20260902103138 75 153 0.0 0.0 0.00 0.00 0.00 88 1015.2
20260902102634 75 153 0.0 0.0 0.00 0.00 0.00 88 1015.3
20260902102132 75 153 0.0 0.0 0.00 0.00 0.00 88 1015.2
20260902101627 75 153 0.0 0.0 0.00 0.00 0.00 88 1015.2
20260902101126 75 151 0.0 0.0 0.00 0.00 0.00 88 1015.1
20260902100621 75 148 0.0 0.0 0.00 0.00 0.00 88 1015.2
20260902100116 75 149 0.0 0.0 0.00 0.00 0.00 87 1015.0
20260902095615 75 151 0.0 0.0 0.00 0.00 0.00 86 1015.0
20260902095114 75 151 0.0 0.0 0.00 0.00 0.00 87 1014.8
20260902094609 75 155 0.0 0.0 0.00 0.00 0.00 86 1014.9
20260902094106 75 159 0.0 0.0 0.00 0.00 0.00 86 1014.8
20260902093559 76 160 0.0 0.0 0.00 0.00 0.00 86 1014.8
20260902093054 76 159 0.0 0.0 0.00 0.00 0.00 86 1015.1
20260902092549 76 157 0.0 0.0 0.00 0.00 0.00 85 1014.8
20260902092044 76 154 0.0 0.0 0.00 0.00 0.00 85 1014.9
20260902091539 76 151 0.0 0.0 0.00 0.00 0.00 85 1015.0
20260902091036 76 156 0.0 0.0 0.00 0.00 0.00 84 1015.0
20260902090531 76 158 0.0 0.0 0.00 0.00 0.00 85 1015.1
20260902090030 76 159 0.0 0.0 0.00 0.00 0.00 85 1015.0
20260902085530 76 161 0.0 0.0 0.00 0.00 0.00 85 1014.9
20260902085026 76 157 0.0 0.0 0.00 0.00 0.00 86 1014.9
20260902084522 76 157 0.0 0.0 0.00 0.00 0.00 86 1015.0
20260902084017 76 157 0.0 0.0 0.00 0.00 0.00 86 1015.1
20260902083512 76 160 0.0 0.0 0.00 0.00 0.00 86 1015.0
20260902083006 76 158 0.0 0.0 0.00 0.00 0.00 85 1015.2
20260902082502 76 157 0.0 0.0 0.00 0.00 0.00 85 1015.1
20260902081959 76 157 0.0 0.0 0.00 0.00 0.00 84 1015.1
20260902081455 76 156 0.0 0.0 0.00 0.00 0.00 84 1015.1
20260902080949 77 159 0.0 0.0 0.00 0.00 0.00 83 1015.1
20260902080445 77 160 0.0 0.0 0.00 0.00 0.00 83 1015.2
20260902075945 77 161 0.0 0.0 0.00 0.00 0.00 83 1015.2
20260902075442 77 158 0.0 0.0 0.00 0.00 0.00 83 1015.2
20260902074942 77 151 0.0 0.0 0.00 0.00 0.00 83 1015.2
20260902074437 77 155 0.0 0.0 0.00 0.00 0.00 82 1015.4
20260902073932 78 154 0.0 0.0 0.00 0.00 0.00 82 1015.4
20260902073428 78 151 0.0 0.0 0.00 0.00 0.00 81 1015.4
20260902072924 78 148 0.0 0.0 0.00 0.00 0.00 81 1015.6
20260902072420 78 154 0.0 0.0 0.00 0.00 0.00 81 1015.8
20260902071916 78 151 0.0 0.0 0.00 0.00 0.00 81 1015.6
20260902071415 78 147 0.0 0.0 0.00 0.00 0.00 81 1015.7
20260902070912 78 138 0.0 0.0 0.00 0.00 0.00 80 1015.9
20260902070408 78 148 1.0 2.0 0.00 0.00 0.00 80 1015.8
20260902065906 78 145 2.0 2.0 0.00 0.00 0.00 79 1015.8
20260902065401 78 152 0.0 0.0 0.00 0.00 0.00 79 1015.9
20260902064856 78 158 0.0 0.0 0.00 0.00 0.00 79 1015.8
20260902064353 79 158 0.0 0.0 0.00 0.00 0.00 79 1015.9